Presure
340 333 324 310 308 300 297 300 322 358 315 293 281 272 265 258 256 253 258 249 250 262 250 239 235 236 226 206 215 203 208 213 199 192 213 227 206 212 216 208 210 196 181 188 199 192 195
331 327 325 320 308 295 283 282 287 280 286 320 359 322 285 286 279 271 265 263 266 259 312 251 270 239 224 215 209 212 211 205 204 208 200 215 215 205 215 208 192 190 188 205 195 206 173
291 340 331 311 308 305 292 283 269 274 272 270 276 326 344 334 316 288 282 279 236 310 257 272 242 251 236 223 208 205 213 210 199 194 192 201 222 207 201 215 206 185 180 181 195 210 185
291 335 327 317 303 281 268 289 284 162 273 265 258 263 284 323 301 315 310 305 292 288 290 251 253 259 236 224 212 207 205 205 209 209 194 203 229 220 201 205 206 206 195 186 206 196 184
284 336 326 319 296 294 278 257 255 267 267 256 240 245 251 282 309 299 297 282 273 267 271 273 276 244 242 230 214 207 207 207 212 213 214 232 236 229 207 202 205 202 208 199 187 192 209
282 294 333 311 292 299 290 275 254 244 252 258 259 242 251 241 285 244 293 272 262 262 255 243 244 244 242 234 226 214 212 208 210 221 237 231 229 223 204 201 200 203 203 212 187 214 198
290 280 344 301 298 298 273 252 248 260 264 247 261 248 242 247 251 305 297 265 259 249 238 234 228 231 225 224 222 213 127 215 252 239 235 230 221 217 221 205 205 204 203 208 207 196 224
349 268 331 307 298 303 278 259 364 507 499 498 384 262 238 247 243 260 302 265 259 247 235 234 231 216 234 286 279 267 263 250 242 235 228 225 219 217 219 195 195 199 204 211 217 214 223
353 270 330 312 308 303 267 379 585 595 572 558 483 540 254 237 246 245 268 265 260 238 242 230 229 215 287 280 267 261 252 243 233 227 226 222 215 220 222 222 219 220 217 215 217 218 224
291 282 328 316 313 294 273 490 588 553 517 518 550 502 480 253 232 240 249 282 258 247 243 238 229 255 281 270 260 252 242 235 230 224 227 221 220 214 215 224 221 222 227 224 225 230 221
335 282 328 315 315 292 392 583 515 497 492 469 511 477 415 264 249 227 232 248 272 251 241 241 230 217 273 267 251 245 239 235 230 225 221 221 223 222 224 224 226 230 234 233 238 244 245
275 282 327 316 313 292 476 504 467 484 437 420 473 499 494 314 248 238 227 233 280 258 245 235 230 218 245 258 246 245 243 243 234 230 231 233 237 228 226 230 238 245 252 256 258 259 274
353 292 322 320 315 292 457 469 462 452 441 432 485 513 483 449 264 242 226 230 250 262 242 232 226 223 217 235 252 243 243 239 238 240 238 235 236 241 240 225 218 220 225 224 226 227 227
317 344 322 318 309 284 457 495 474 452 451 450 481 498 487 398 281 251 240 223 236 247 247 224 230 221 217 216 213 242 249 248 247 243 210 210 201 206 210 217 223 220 226 234 244 253 257
279 290 324 313 305 357 501 441 451 485 432 444 506 493 482 398 346 267 242 227 236 221 257 235 225 232 220 215 210 207 206 207 206 208 205 204 210 215 217 206 222 233 232 247 261 276 316
286 319 321 316 304 487 584 449 494 432 433 449 483 454 490 366 348 275 252 229 231 233 218 250 232 231 227 217 216 213 213 215 214 213 213 213 214 223 223 224 239 333 324 318 320 331 352
305 319 325 318 303 585 462 502 450 432 435 499 459 425 343 349 348 303 267 232 228 233 226 250 246 230 225 222 221 217 218 217 217 216 214 211 207 224 274 297 290 331 330 250 222 331 341
288 335 322 316 301 444 455 449 448 448 460 405 392 382 374 354 362 320 275 235 233 231 227 228 262 243 235 227 216 219 217 217 212 211 201 212 245 264 276 272 275 315 340 336 334 322 329
249 306 317 313 300 422 475 454 451 444 435 377 357 355 358 348 332 324 288 242 224 225 224 228 219 222 245 243 233 217 211 212 199 209 228 265 265 241 272 260 257 267 343 368 352 337 299
285 325 314 311 298 422 515 482 450 470 355 349 339 331 359 357 344 318 325 288 196 221 221 207 219 215 209 211 214 216 216 213 219 244 264 255 237 263 263 267 252 256 258 294 394 407 413
314 333 307 307 296 425 506 473 467 415 364 338 328 335 320 316 318 320 315 287 209 226 220 219 218 212 209 214 215 216 215 220 259 251 167 233 249 246 254 252 262 229 267 257 277 299 319
319 334 308 301 293 428 486 474 366 369 352 340 323 316 305 305 307 313 321 339 238 232 225 214 216 217 217 212 222 222 218 236 255 236 245 223 157 118 234 249 237 235 238 256 267 267 285
335 318 299 298 283 423 435 467 362 356 338 319 317 307 322 296 300 310 238 349 275 237 224 218 219 216 208 218 215 230 236 226 225 176 250 157 240 234 234 233 210 235 236 251 240 263 258
333 315 296 294 282 403 378 376 365 336 348 306 297 303 306 303 304 309 316 325 329 244 236 223 227 222 219 219 231 236 236 226 189 230 251 235 229 234 221 222 213 216 226 239 223 240 244
307 309 300 291 280 425 384 365 351 358 320 315 309 297 295 295 290 320 298 353 319 296 244 231 226 220 221 230 227 224 223 187 221 198 257 235 235 200 246 222 116 219 228 239 225 215 232
303 313 304 287 282 421 367 355 351 338 324 311 312 296 295 299 293 283 309 299 318 299 266 242 195 198 238 222 261 270 245 231 215 236 241 218 226 185 161 250 213 261 230 249 227 233 223
308 309 306 286 283 421 380 346 329 325 314 314 301 287 285 299 295 294 325 290 287 294 290 259 249 246 246 257 246 228 201 188 212 208 214 194 202 145 142 205 235 217 169 237 236 236 228
305 317 305 282 279 430 409 358 320 312 323 315 292 297 306 289 293 301 297 284 272 271 270 271 259 256 245 274 254 183 243 205 198 217 224 226 203 239 230 183 192 191 232 196 237 221 225
317 317 306 280 271 436 407 373 343 331 317 305 302 299 289 302 298 296 278 266 264 259 263 262 288 213 213 240 239 184 225 201 182 225 214 219 170 226 193 221 214 229 203 168 197 233 237
Wind_Speed
46 41 36 39 37 35 31 29 32 37 59 67 72 76 79 80 81 81 79 76 74 76 79 79 81 84 80 75 78 72 70 72 68 65 64 63 72 67 63 70 65 70 69 72 73 71 62
57 48 40 34 33 33 33 33 30 32 34 38 46 63 75 80 85 84 79 75 75 70 74 77 82 84 79 77 72 75 75 75 70 67 65 63 68 71 62 68 75 75 67 70 75 74 55
91 45 41 39 35 32 30 29 32 33 33 37 37 39 48 50 67 78 77 75 66 65 68 75 73 81 84 76 73 75 75 73 69 67 68 67 68 73 71 65 70 77 67 67 76 72 65
95 49 45 39 34 32 30 29 31 18 36 38 39 40 39 48 57 53 53 55 59 62 64 66 70 80 80 77 74 75 74 74 74 76 69 70 73 70 73 69 69 71 78 76 72 72 60
99 52 47 41 41 38 36 38 39 38 39 46 50 50 46 39 50 53 53 56 58 58 58 60 65 70 76 80 72 73 75 74 76 75 75 75 73 69 71 72 71 76 73 79 68 69 71
101 90 46 45 50 44 45 42 44 50 50 49 50 54 49 50 41 47 55 58 57 55 53 55 60 63 67 74 76 73 74 73 75 79 75 72 70 65 72 77 75 74 72 71 78 73 77
103 102 49 59 55 47 46 53 58 60 60 63 59 56 57 55 45 54 56 56 55 55 54 59 55 55 60 64 68 70 36 76 79 76 72 69 66 67 72 76 76 75 74 76 78 80 79
71 102 62 68 67 60 59 64 69 52 47 46 65 63 59 60 55 44 53 55 58 58 54 54 54 54 60 70 72 78 76 75 74 71 69 67 67 70 72 73 72 76 77 80 82 81 75
79 106 71 79 77 72 72 71 41 26 26 28 38 43 66 61 59 50 38 58 58 53 55 51 52 50 62 66 69 72 71 73 70 68 68 67 68 71 71 73 78 82 77 81 80 80 75
120 115 77 85 85 78 81 58 20 14 13 16 26 37 51 68 52 54 45 48 58 56 52 52 48 50 60 64 68 70 69 70 69 66 67 65 70 69 71 76 79 79 84 80 79 81 76
100 118 85 92 91 86 72 28 17 17 10 21 20 37 59 69 64 45 49 50 59 57 50 48 42 41 60 64 65 66 66 66 63 62 62 66 69 66 70 77 78 80 84 85 86 88 85
120 119 91 97 97 93 56 33 34 18 9 18 22 22 39 77 64 58 50 52 52 57 49 42 39 40 54 59 62 59 60 64 61 61 65 66 70 70 75 80 81 82 84 84 87 86 82
90 117 98 99 100 97 56 37 27 18 13 16 17 8 40 60 72 62 57 50 50 49 45 43 41 40 38 51 58 51 57 58 60 62 63 64 69 70 71 64 59 61 67 68 68 69 58
116 94 100 101 101 100 54 25 21 18 11 19 11 7 37 68 73 70 66 44 45 42 47 44 44 41 38 34 34 49 55 57 55 50 42 46 51 52 55 59 66 62 67 77 79 82 83
124 119 100 104 101 83 31 31 19 7 7 10 11 22 44 68 72 73 66 51 50 45 49 48 43 42 38 38 38 38 38 38 40 41 44 46 52 54 57 55 65 74 78 90 92 94 96
123 108 101 103 100 49 24 23 6 2 4 3 14 30 43 63 74 73 66 57 54 51 45 49 45 41 41 39 38 37 36 38 40 42 45 48 53 60 63 69 79 55 59 61 61 59 53
114 105 98 101 100 30 27 5 6 3 2 10 32 35 58 61 69 78 66 56 55 51 45 46 50 44 41 38 38 37 38 38 40 42 45 43 46 64 24 22 28 34 38 32 31 50 49
118 99 99 100 99 51 28 12 3 12 10 39 41 43 58 58 59 69 68 62 56 49 48 46 49 46 41 38 37 37 36 36 36 41 35 50 53 36 11 22 24 36 37 42 48 50 54
117 107 97 97 98 53 21 7 5 14 30 46 43 44 51 64 65 71 64 58 52 51 47 44 43 41 39 38 35 36 35 34 27 40 50 24 15 44 10 16 23 30 39 36 41 49 47
107 97 95 96 96 49 18 10 7 16 39 48 45 42 38 51 51 55 60 65 37 50 46 38 44 43 39 37 36 36 35 35 38 30 21 24 38 9 16 18 22 29 35 44 19 22 14
100 91 94 94 93 45 15 6 11 43 56 47 39 43 43 43 43 52 61 59 44 54 49 48 46 41 38 38 37 35 30 33 20 25 12 33 20 12 19 26 32 11 39 39 49 50 46
94 87 88 92 91 39 14 13 12 51 50 48 42 40 35 39 43 45 45 44 58 55 51 42 42 43 41 35 37 32 27 29 24 23 27 24 12 12 15 22 28 32 35 40 47 44 54
86 84 85 87 87 22 10 24 38 39 35 32 37 34 40 32 29 26 15 32 56 57 54 46 45 42 35 38 30 27 26 22 22 12 13 11 4 5 16 19 17 29 33 32 33 41 43
81 78 82 83 83 4 6 22 36 29 39 32 29 30 30 27 25 22 27 35 41 59 56 51 48 44 38 36 32 25 23 19 15 11 19 5 6 8 11 14 15 21 26 28 23 33 37
85 77 75 79 79 6 21 17 28 39 31 36 38 30 25 24 22 22 30 29 44 52 57 52 48 45 41 38 29 26 28 14 9 8 16 11 7 12 6 13 17 20 18 18 22 21 30
83 74 70 77 75 4 20 11 24 34 31 31 30 27 25 24 24 24 35 37 44 47 54 50 28 26 44 30 29 29 21 14 15 12 14 17 19 7 5 11 24 14 9 18 21 18 20
76 73 67 72 72 7 23 14 18 24 26 33 30 22 25 25 25 28 33 41 39 41 45 51 50 43 40 35 33 33 25 13 14 10 16 7 2 9 6 13 10 21 3 15 18 21 22
75 71 64 70 71 11 28 23 15 21 34 35 24 25 24 28 29 34 44 47 45 49 49 45 42 41 38 42 33 19 27 27 15 14 6 12 17 8 11 10 12 9 10 15 11 14 15
68 67 60 65 68 19 25 25 35 37 37 31 28 29 29 24 34 42 47 48 48 45 43 41 41 27 27 38 35 18 29 23 15 15 13 11 8 6 7 8 14 5 16 7 17 15 10
Wind_Direction
341 334 315 315 309 304 299 293 292 280 257 256 252 251 249 251 249 249 245 246 246 244 240 240 241 241 242 243 244 246 248 248 244 239 246 243 246 248 245 245 245 250 254 257 256 257 256
344 336 325 315 306 300 297 293 284 274 270 270 268 256 251 250 247 246 246 247 248 246 239 236 233 237 240 239 242 244 244 244 246 247 244 245 242 246 245 242 247 250 248 252 257 256 250
359 329 320 321 314 304 295 285 281 280 274 266 266 272 258 252 248 247 247 249 244 243 236 232 236 232 234 238 239 241 244 244 246 245 243 247 247 243 247 245 241 250 253 257 258 255 254
359 331 327 321 322 313 303 295 293 302 273 263 260 257 271 251 247 244 241 237 237 237 234 235 234 229 231 235 236 239 242 244 246 247 246 250 253 240 246 246 244 243 247 254 255 262 259
356 333 327 322 324 317 306 296 292 285 273 266 267 261 259 265 246 242 237 231 232 232 232 231 229 230 229 233 235 239 242 245 246 248 249 251 249 244 240 246 246 245 245 248 254 256 257
355 352 321 326 330 314 313 306 296 291 281 265 257 261 254 256 257 237 232 228 230 228 227 228 229 230 231 233 235 238 241 244 247 251 247 245 245 245 240 245 248 248 249 254 255 258 254
354 354 322 337 333 324 314 312 305 291 277 274 258 251 253 249 241 242 233 228 226 225 224 224 227 232 233 235 236 239 238 246 238 241 241 242 243 244 243 243 247 250 252 252 253 253 257
340 354 334 338 334 327 324 322 308 293 281 272 250 246 252 244 244 232 235 225 224 224 226 226 228 229 233 224 226 230 230 232 233 237 240 242 242 244 245 250 253 254 254 255 256 258 261
341 353 337 338 335 333 332 321 313 307 299 278 252 240 235 249 238 237 225 222 224 228 226 227 228 229 223 224 225 227 227 229 234 236 238 241 244 247 248 251 252 252 255 257 259 262 265
351 352 338 339 338 337 336 321 331 1 337 330 276 228 225 231 243 236 219 227 222 224 225 226 228 230 223 222 222 224 227 229 232 237 240 243 248 250 252 251 252 256 258 262 263 262 261
346 350 339 340 340 342 334 322 324 315 320 315 301 218 215 221 227 238 230 219 221 221 222 224 227 226 224 222 223 227 230 232 236 242 247 249 251 257 258 259 263 265 263 264 263 263 261
348 349 340 341 342 344 329 326 327 315 289 266 291 243 208 213 223 227 229 232 219 217 217 222 223 225 224 225 227 230 233 236 242 245 250 254 257 259 260 261 264 266 268 268 268 268 267
343 348 342 342 343 344 332 329 332 322 275 272 307 268 199 188 213 220 227 230 217 217 215 219 220 221 222 225 230 234 237 240 244 248 253 258 261 261 264 266 268 268 267 266 266 266 262
347 341 343 344 346 346 332 317 335 323 289 309 288 227 186 185 209 211 219 225 219 213 212 216 220 221 222 224 225 233 238 243 249 251 246 252 254 259 263 268 269 274 275 276 274 273 270
347 346 344 345 346 343 320 331 335 15 309 342 291 188 175 181 189 209 214 216 211 214 212 214 218 221 221 224 228 231 235 239 242 247 250 256 263 270 273 269 275 278 280 278 276 273 268
346 345 343 345 346 339 325 337 30 28 359 327 168 158 173 178 186 206 207 208 210 210 216 211 216 219 222 224 230 236 242 247 252 257 263 268 273 276 280 280 282 284 284 281 276 275 280
345 344 343 347 347 338 345 32 82 121 118 29 153 157 176 183 179 201 205 201 212 209 214 213 213 218 221 225 232 238 244 251 257 265 269 275 277 279 310 354 327 306 284 269 268 283 285
344 345 345 348 348 349 349 351 74 81 76 145 145 157 171 177 176 191 204 199 209 208 212 212 210 214 220 224 232 239 246 253 263 270 271 279 283 280 310 318 331 350 318 297 288 288 286
344 345 345 349 349 349 353 358 109 133 141 141 153 160 167 174 182 194 205 192 205 207 212 210 216 218 214 222 228 240 250 259 263 273 278 265 276 293 18 329 344 4 345 309 282 278 278
344 346 345 350 350 350 0 146 144 106 156 151 158 164 154 175 183 194 195 202 202 206 210 211 213 219 226 231 236 242 251 261 269 263 242 272 289 309 357 5 5 12 10 34 322 281 272
345 346 345 349 350 353 81 66 140 155 155 168 170 153 157 159 179 192 201 201 202 203 208 210 214 223 229 231 237 245 256 265 215 249 254 290 272 304 30 22 23 8 40 32 41 47 56
346 348 346 348 350 353 50 69 152 154 161 162 163 162 169 179 192 201 207 200 197 198 207 215 217 220 225 229 236 244 253 268 239 272 247 298 279 263 26 48 39 31 26 38 47 55 58
347 347 345 346 350 3 107 126 166 161 162 155 156 160 159 184 193 198 205 194 197 199 204 210 215 221 223 232 235 242 254 234 246 250 237 256 110 69 56 50 40 36 28 40 44 64 61
346 348 343 346 350 84 19 157 163 147 153 165 170 160 166 173 184 187 177 179 185 200 201 206 211 217 222 228 236 242 218 231 237 252 222 207 116 110 65 44 58 44 40 47 53 57 60
344 346 344 344 350 345 188 175 163 157 160 162 170 174 179 171 169 185 177 182 178 190 203 205 210 214 220 227 226 221 222 214 152 259 167 173 146 123 87 56 233 58 35 68 52 48 50
343 345 345 341 348 289 222 229 173 167 163 167 175 173 171 170 168 174 178 173 175 182 200 205 207 212 222 210 215 198 198 204 221 266 214 123 128 316 113 38 72 41 50 98 69 70 55
343 345 345 341 347 258 201 222 183 181 181 173 177 186 179 175 171 180 177 171 169 174 182 200 207 207 212 206 201 200 204 184 205 246 140 190 105 210 217 110 68 74 185 53 76 85 75
342 346 344 340 343 239 200 203 221 203 189 179 192 181 182 171 173 174 166 162 167 176 181 186 191 196 195 196 183 198 180 178 179 180 184 168 143 230 168 278 126 53 58 82 51 86 93
342 345 344 338 341 227 207 205 195 190 192 198 184 176 172 183 178 169 161 167 175 178 182 183 187 193 189 185 180 199 175 191 221 187 173 158 250 164 271 95 116 4 138 146 125 84 87